Year,Month,Day,Hour,Minute,Value (Times are PST for temperature in C)
2009,07,19,00,00,16.90
2009,07,19,00,05,16.90
2009,07,19,00,06,17.00
2009,07,19,00,07,17.00
2009,07,19,00,08,17.10
2009,07,19,00,09,17.10
2009,07,19,00,10,17.10
2009,07,19,00,11,17.10
2009,07,19,00,12,17.10
2009,07,19,00,13,17.00
2009,07,19,00,14,17.00
2009,07,19,00,15,17.00
2009,07,19,00,16,17.00
2009,07,19,00,17,17.00
2009,07,19,00,18,16.90
2009,07,19,00,19,16.90
2009,07,19,00,20,16.90
2009,07,19,00,21,16.90
2009,07,19,00,22,16.80
2009,07,19,00,23,16.80
2009,07,19,00,24,16.80
2009,07,19,00,25,16.80
2009,07,19,00,26,16.80
2009,07,19,00,27,16.80
2009,07,19,00,28,16.80
2009,07,19,00,29,16.80
2009,07,19,00,30,16.80
2009,07,19,00,31,16.80
2009,07,19,00,32,16.90
2009,07,19,00,33,16.90
2009,07,19,00,34,16.90
2009,07,19,00,35,16.90
2009,07,19,00,36,16.90
2009,07,19,00,37,16.90
2009,07,19,00,38,16.90
2009,07,19,00,39,16.90
2009,07,19,00,40,16.90
2009,07,19,00,41,16.90
2009,07,19,00,42,16.90
2009,07,19,00,43,16.90
2009,07,19,00,44,16.90
2009,07,19,00,45,16.80
2009,07,19,00,46,16.80
2009,07,19,00,47,16.80
2009,07,19,00,48,16.70
2009,07,19,00,49,16.70
2009,07,19,00,50,16.70
2009,07,19,00,51,16.70
2009,07,19,00,52,16.70
2009,07,19,00,53,16.70
2009,07,19,00,54,16.70
2009,07,19,00,55,16.70
2009,07,19,00,56,16.70
2009,07,19,00,57,16.60
2009,07,19,00,58,16.60
2009,07,19,00,59,16.60
2009,07,19,01,00,16.70
2009,07,19,01,01,16.70
2009,07,19,01,02,16.70
2009,07,19,01,03,16.70
2009,07,19,01,04,16.70
2009,07,19,01,05,16.70
2009,07,19,01,06,16.70
2009,07,19,01,07,16.70
2009,07,19,01,08,16.70
2009,07,19,01,09,16.70
2009,07,19,01,10,16.70
2009,07,19,01,11,16.60
2009,07,19,01,12,16.60
2009,07,19,01,13,16.60
2009,07,19,01,14,16.60
2009,07,19,01,15,16.50
2009,07,19,01,16,16.50
2009,07,19,01,17,16.50
2009,07,19,01,18,16.40
2009,07,19,01,19,16.40
2009,07,19,01,20,16.40
2009,07,19,01,21,16.30
2009,07,19,01,22,16.30
2009,07,19,01,23,16.30
2009,07,19,01,24,16.20
2009,07,19,01,25,16.20
2009,07,19,01,26,16.20
2009,07,19,01,27,16.20
2009,07,19,01,28,16.20
2009,07,19,01,29,16.20
2009,07,19,01,30,16.20
2009,07,19,01,31,16.20
2009,07,19,01,32,16.30
2009,07,19,01,33,16.30
2009,07,19,01,34,16.30
2009,07,19,01,35,16.30
2009,07,19,01,36,16.30
2009,07,19,01,37,16.30
2009,07,19,01,38,16.30
2009,07,19,01,39,16.20
2009,07,19,01,40,16.20
2009,07,19,01,41,16.20
2009,07,19,01,42,16.20
2009,07,19,01,43,16.20
2009,07,19,01,44,16.20
2009,07,19,01,45,16.20
2009,07,19,01,46,16.20
2009,07,19,01,47,16.20
2009,07,19,01,48,16.20
2009,07,19,01,49,16.20
2009,07,19,01,50,16.20
2009,07,19,01,51,16.20
2009,07,19,01,52,16.20
2009,07,19,01,53,16.20
2009,07,19,01,54,16.20
2009,07,19,01,55,16.20
2009,07,19,01,56,16.10
2009,07,19,01,57,16.10
2009,07,19,01,58,16.10
2009,07,19,01,59,16.00
2009,07,19,02,00,16.00
2009,07,19,02,01,16.00
2009,07,19,02,02,15.90
2009,07,19,02,03,15.90
2009,07,19,02,04,15.90
2009,07,19,02,05,15.90
2009,07,19,02,06,15.80
2009,07,19,02,07,15.80
2009,07,19,02,08,15.80
2009,07,19,02,09,15.70
2009,07,19,02,10,15.70
2009,07,19,02,11,15.70
2009,07,19,02,12,15.70
2009,07,19,02,13,15.70
2009,07,19,02,14,15.70
2009,07,19,02,15,15.70
2009,07,19,02,16,15.70
2009,07,19,02,17,15.70
2009,07,19,02,18,15.70
2009,07,19,02,19,15.60
2009,07,19,02,20,15.60
2009,07,19,02,21,15.60
2009,07,19,02,22,15.60
2009,07,19,02,23,15.60
2009,07,19,02,24,15.60
2009,07,19,02,25,15.60
2009,07,19,02,26,15.60
2009,07,19,02,27,15.60
2009,07,19,02,28,15.60
2009,07,19,02,29,15.60
2009,07,19,02,30,15.60
2009,07,19,02,31,15.60
2009,07,19,02,32,15.60
2009,07,19,02,33,15.60
2009,07,19,02,34,15.60
2009,07,19,02,35,15.60
2009,07,19,02,36,15.60
2009,07,19,02,37,15.50
2009,07,19,02,38,15.50
2009,07,19,02,39,15.50
2009,07,19,02,40,15.50
2009,07,19,02,41,15.50
2009,07,19,02,42,15.50
2009,07,19,02,43,15.40
2009,07,19,02,44,15.40
2009,07,19,02,45,15.40
2009,07,19,02,46,15.30
2009,07,19,02,47,15.30
2009,07,19,02,48,15.30
2009,07,19,02,49,15.30
2009,07,19,02,50,15.30
2009,07,19,02,51,15.30
2009,07,19,02,52,15.30
2009,07,19,02,53,15.20
2009,07,19,02,54,15.10
2009,07,19,02,55,15.10
2009,07,19,02,56,15.00
2009,07,19,02,57,15.00
2009,07,19,02,58,15.00
2009,07,19,02,59,15.00
2009,07,19,03,00,15.00
2009,07,19,03,01,15.00
2009,07,19,03,02,15.00
2009,07,19,03,03,15.00
2009,07,19,03,04,15.00
2009,07,19,03,05,15.00
2009,07,19,03,06,15.00
2009,07,19,03,07,15.00
2009,07,19,03,08,15.00
2009,07,19,03,09,15.00
2009,07,19,03,10,15.00
2009,07,19,03,11,15.00
2009,07,19,03,12,15.00
2009,07,19,03,13,15.00
2009,07,19,03,14,15.00
2009,07,19,03,15,14.90
2009,07,19,03,16,14.80
2009,07,19,03,17,14.80
2009,07,19,03,18,14.70
2009,07,19,03,19,14.70
2009,07,19,03,20,14.70
2009,07,19,03,21,14.60
2009,07,19,03,22,14.60
2009,07,19,03,23,14.50
2009,07,19,03,24,14.50
2009,07,19,03,25,14.40
2009,07,19,03,26,14.40
2009,07,19,03,27,14.30
2009,07,19,03,28,14.30
2009,07,19,03,29,14.30
2009,07,19,03,30,14.30
2009,07,19,03,31,14.30
2009,07,19,03,32,14.20
2009,07,19,03,33,14.20
2009,07,19,03,34,14.20
2009,07,19,03,35,14.20
2009,07,19,03,36,14.20
2009,07,19,03,37,14.10
2009,07,19,03,38,14.10
2009,07,19,03,39,14.10
2009,07,19,03,40,14.10
2009,07,19,03,41,14.10
2009,07,19,03,42,14.10
2009,07,19,03,43,14.00
2009,07,19,03,44,14.00
2009,07,19,03,45,14.00
2009,07,19,03,46,14.00
2009,07,19,03,47,13.90
2009,07,19,03,48,13.90
2009,07,19,03,49,13.90
2009,07,19,03,50,13.90
2009,07,19,03,51,13.90
2009,07,19,03,52,13.90
2009,07,19,03,53,13.90
2009,07,19,03,54,13.90
2009,07,19,03,55,13.90
2009,07,19,03,56,13.80
2009,07,19,03,57,13.80
2009,07,19,03,58,13.80
2009,07,19,03,59,13.80
2009,07,19,04,00,13.80
2009,07,19,04,01,13.70
2009,07,19,04,02,13.70
2009,07,19,04,03,13.70
2009,07,19,04,04,13.60
2009,07,19,04,05,13.60
2009,07,19,04,06,13.60
2009,07,19,04,07,13.60
2009,07,19,04,08,13.50
2009,07,19,04,09,13.50
2009,07,19,04,10,13.50
2009,07,19,04,11,13.50
2009,07,19,04,12,13.50
2009,07,19,04,13,13.40
2009,07,19,04,14,13.40
2009,07,19,04,15,13.40
2009,07,19,04,16,13.40
2009,07,19,04,17,13.30
2009,07,19,04,18,13.30
2009,07,19,04,19,13.30
2009,07,19,04,20,13.20
2009,07,19,04,21,13.20
2009,07,19,04,22,13.20
2009,07,19,04,23,13.10
2009,07,19,04,24,13.10
2009,07,19,04,25,13.10
2009,07,19,04,26,13.10
2009,07,19,04,27,13.10
2009,07,19,04,28,13.10
2009,07,19,04,29,13.00
2009,07,19,04,30,13.00
2009,07,19,04,31,12.90
2009,07,19,04,32,12.90
2009,07,19,04,33,12.90
2009,07,19,04,34,12.90
2009,07,19,04,35,12.80
2009,07,19,04,36,12.80
2009,07,19,04,37,12.80
2009,07,19,04,38,12.80
2009,07,19,04,39,12.80
2009,07,19,04,40,12.80
2009,07,19,04,41,12.80
2009,07,19,04,42,12.80
2009,07,19,04,43,12.80
2009,07,19,04,44,12.80
2009,07,19,04,45,12.80
2009,07,19,04,46,12.80
2009,07,19,04,47,12.80
2009,07,19,04,48,12.80
2009,07,19,04,49,12.80
2009,07,19,04,50,12.80
2009,07,19,04,51,12.80
2009,07,19,04,52,12.80
2009,07,19,04,53,12.70
2009,07,19,04,54,12.70
2009,07,19,04,55,12.70
2009,07,19,04,56,12.70
2009,07,19,04,57,12.70
2009,07,19,04,58,12.70
2009,07,19,04,59,12.70
2009,07,19,05,00,12.70
2009,07,19,05,01,12.70
2009,07,19,05,02,12.70
2009,07,19,05,03,12.70
2009,07,19,05,04,12.60
2009,07,19,05,05,12.60
2009,07,19,05,06,12.60
2009,07,19,05,07,12.60
2009,07,19,05,08,12.60
2009,07,19,05,09,12.60
2009,07,19,05,10,12.60
2009,07,19,05,11,12.60
2009,07,19,05,12,12.60
2009,07,19,05,13,12.60
2009,07,19,05,14,12.70
2009,07,19,05,15,12.70
2009,07,19,05,16,12.70
2009,07,19,05,17,12.70
2009,07,19,05,18,12.70
2009,07,19,05,19,12.70
2009,07,19,05,20,12.70
2009,07,19,05,21,12.70
2009,07,19,05,22,12.80
2009,07,19,05,23,12.80
2009,07,19,05,24,12.80
2009,07,19,05,25,12.80
2009,07,19,05,26,12.80
2009,07,19,05,27,12.80
2009,07,19,05,28,12.80
2009,07,19,05,29,12.80
2009,07,19,05,30,12.80
2009,07,19,05,31,12.80
2009,07,19,05,32,12.80
2009,07,19,05,33,12.80
2009,07,19,05,34,12.80
2009,07,19,05,35,12.70
2009,07,19,05,36,12.70
2009,07,19,05,37,12.70
2009,07,19,05,38,12.70
2009,07,19,05,39,12.70
2009,07,19,05,40,12.70
2009,07,19,05,41,12.60
2009,07,19,05,42,12.60
2009,07,19,05,43,12.60
2009,07,19,05,44,12.60
2009,07,19,05,45,12.50
2009,07,19,05,46,12.50
2009,07,19,05,47,12.50
2009,07,19,05,48,12.50
2009,07,19,05,49,12.50
2009,07,19,05,50,12.50
2009,07,19,05,51,12.50
2009,07,19,05,52,12.50
2009,07,19,05,53,12.50
2009,07,19,05,54,12.60
2009,07,19,05,55,12.60
2009,07,19,05,56,12.60
2009,07,19,05,57,12.70
2009,07,19,05,58,12.70
2009,07,19,05,59,12.80
2009,07,19,06,00,12.80
2009,07,19,06,01,12.90
2009,07,19,06,02,13.00
2009,07,19,06,03,13.00
2009,07,19,06,04,13.10
2009,07,19,06,05,13.10
2009,07,19,06,06,13.10
2009,07,19,06,07,13.10
2009,07,19,06,08,13.10
2009,07,19,06,09,13.10
2009,07,19,06,10,13.10
2009,07,19,06,11,13.10
2009,07,19,06,12,13.20
2009,07,19,06,13,13.20
2009,07,19,06,14,13.20
2009,07,19,06,15,13.20
2009,07,19,06,16,13.20
2009,07,19,06,17,13.20
2009,07,19,06,18,13.20
2009,07,19,06,19,13.20
2009,07,19,06,20,13.20
2009,07,19,06,21,13.20
2009,07,19,06,22,13.20
2009,07,19,06,23,13.20
2009,07,19,06,24,13.20
2009,07,19,06,25,13.20
2009,07,19,06,26,13.20
2009,07,19,06,27,13.20
2009,07,19,06,28,13.20
2009,07,19,06,29,13.20
2009,07,19,06,30,13.20
2009,07,19,06,31,13.20
2009,07,19,06,32,13.20
2009,07,19,06,33,13.20
2009,07,19,06,34,13.20
2009,07,19,06,35,13.20
2009,07,19,06,36,13.30
2009,07,19,06,37,13.30
2009,07,19,06,38,13.30
2009,07,19,06,39,13.40
2009,07,19,06,40,13.40
2009,07,19,06,41,13.40
2009,07,19,06,42,13.40
2009,07,19,06,43,13.40
2009,07,19,06,44,13.50
2009,07,19,06,45,13.50
2009,07,19,06,46,13.60
2009,07,19,06,47,13.60
2009,07,19,06,48,13.60
2009,07,19,06,49,13.70
2009,07,19,06,50,13.70
2009,07,19,06,51,13.70
2009,07,19,06,52,13.70
2009,07,19,06,53,13.80
2009,07,19,06,54,13.80
2009,07,19,06,55,13.90
2009,07,19,06,56,13.90
2009,07,19,06,57,14.00
2009,07,19,06,58,14.10
2009,07,19,06,59,14.20
2009,07,19,07,00,14.20
2009,07,19,07,01,14.30
2009,07,19,07,02,14.30
2009,07,19,07,03,14.40
2009,07,19,07,04,14.50
2009,07,19,07,05,14.60
2009,07,19,07,06,14.80
2009,07,19,07,07,14.90
2009,07,19,07,08,15.00
2009,07,19,07,09,15.00
2009,07,19,07,10,15.00
2009,07,19,07,11,15.00
2009,07,19,07,12,15.00
2009,07,19,07,13,15.00
2009,07,19,07,14,15.00
2009,07,19,07,15,15.00
2009,07,19,07,16,15.00
2009,07,19,07,17,15.00
2009,07,19,07,18,15.10
2009,07,19,07,19,15.20
2009,07,19,07,20,15.30
2009,07,19,07,21,15.30
2009,07,19,07,22,15.40
2009,07,19,07,23,15.40
2009,07,19,07,24,15.40
2009,07,19,07,25,15.50
2009,07,19,07,26,15.50
2009,07,19,07,27,15.60
2009,07,19,07,28,15.60
2009,07,19,07,29,15.70
2009,07,19,07,30,15.90
2009,07,19,07,31,16.00
2009,07,19,07,32,16.20
2009,07,19,07,33,16.30
2009,07,19,07,34,16.40
2009,07,19,07,35,16.50
2009,07,19,07,36,16.60
2009,07,19,07,37,16.70
2009,07,19,07,38,16.90
2009,07,19,07,39,17.10
2009,07,19,07,40,17.10
2009,07,19,07,41,17.20
2009,07,19,07,42,17.30
2009,07,19,07,43,17.40
2009,07,19,07,44,17.50
2009,07,19,07,45,17.60
2009,07,19,07,46,17.70
2009,07,19,07,47,17.80
2009,07,19,07,48,17.80
2009,07,19,07,49,17.90
2009,07,19,07,50,17.90
2009,07,19,07,51,17.90
2009,07,19,07,52,18.00
2009,07,19,07,53,18.00
2009,07,19,07,54,18.00
2009,07,19,07,55,18.00
2009,07,19,07,56,18.10
2009,07,19,07,57,18.10
2009,07,19,07,58,18.00
2009,07,19,07,59,17.90
2009,07,19,08,00,17.80
2009,07,19,08,01,17.80
2009,07,19,08,02,17.80
2009,07,19,08,03,17.80
2009,07,19,08,04,17.80
2009,07,19,08,05,17.70
2009,07,19,08,06,17.70
2009,07,19,08,07,17.70
2009,07,19,08,08,17.70
2009,07,19,08,09,17.80
2009,07,19,08,10,17.80
2009,07,19,08,11,17.80
2009,07,19,08,12,17.80
2009,07,19,08,13,17.90
2009,07,19,08,14,17.90
2009,07,19,08,15,17.80
2009,07,19,08,16,17.70
2009,07,19,08,17,17.60
2009,07,19,08,18,17.60
2009,07,19,08,19,17.50
2009,07,19,08,20,17.50
2009,07,19,08,21,17.50
2009,07,19,08,22,17.60
2009,07,19,08,23,17.60
2009,07,19,08,24,17.70
2009,07,19,08,25,17.70
2009,07,19,08,26,17.60
2009,07,19,08,27,17.60
2009,07,19,08,28,17.50
2009,07,19,08,29,17.40
2009,07,19,08,30,17.40
2009,07,19,08,31,17.30
2009,07,19,08,32,17.30
2009,07,19,08,33,17.40
2009,07,19,08,34,17.40
2009,07,19,08,35,17.50
2009,07,19,08,36,17.60
2009,07,19,08,37,17.60
2009,07,19,08,38,17.60
2009,07,19,08,39,17.70
2009,07,19,08,40,17.70
2009,07,19,08,41,17.80
2009,07,19,08,42,17.80
2009,07,19,08,43,17.80
2009,07,19,08,44,17.80
2009,07,19,08,45,17.70
2009,07,19,08,46,17.70
2009,07,19,08,47,17.60
2009,07,19,08,48,17.60
2009,07,19,08,49,17.60
2009,07,19,08,50,17.60
2009,07,19,08,51,17.60
2009,07,19,08,52,17.60
2009,07,19,08,53,17.60
2009,07,19,08,54,17.70
2009,07,19,08,55,17.70
2009,07,19,08,56,17.80
2009,07,19,08,57,17.80
2009,07,19,08,58,17.90
2009,07,19,08,59,17.80
2009,07,19,09,00,17.80
2009,07,19,09,01,17.80
2009,07,19,09,02,17.90
2009,07,19,09,03,17.80
2009,07,19,09,04,17.80
2009,07,19,09,05,17.80
2009,07,19,09,06,17.80
2009,07,19,09,07,17.80
2009,07,19,09,08,17.80
2009,07,19,09,09,17.80
2009,07,19,09,10,17.80
2009,07,19,09,11,17.90
2009,07,19,09,12,18.00
2009,07,19,09,13,18.10
2009,07,19,09,14,18.20
2009,07,19,09,15,18.20
2009,07,19,09,16,18.20
2009,07,19,09,17,18.20
2009,07,19,09,18,18.10
2009,07,19,09,19,18.10
2009,07,19,09,20,18.10
2009,07,19,09,21,18.00
2009,07,19,09,22,17.90
2009,07,19,09,23,17.90
2009,07,19,09,24,17.90
2009,07,19,09,25,17.90
2009,07,19,09,26,18.00
2009,07,19,09,27,18.10
2009,07,19,09,28,18.10
2009,07,19,09,29,18.10
2009,07,19,09,30,18.10
2009,07,19,09,31,18.20
2009,07,19,09,32,18.30
2009,07,19,09,33,18.40
2009,07,19,09,34,18.50
2009,07,19,09,35,18.70
2009,07,19,09,36,18.70
2009,07,19,09,37,18.70
2009,07,19,09,38,18.80
2009,07,19,09,39,18.90
2009,07,19,09,40,18.90
2009,07,19,09,41,19.00
2009,07,19,09,42,19.00
2009,07,19,09,43,19.10
2009,07,19,09,44,19.00
2009,07,19,09,45,18.90
2009,07,19,09,46,18.80
2009,07,19,09,47,18.70
2009,07,19,09,48,18.70
2009,07,19,09,49,18.60
2009,07,19,09,50,18.60
2009,07,19,09,51,18.60
2009,07,19,09,52,18.60
2009,07,19,09,53,18.70
2009,07,19,09,54,18.70
2009,07,19,09,55,18.80
2009,07,19,09,56,18.80
2009,07,19,09,57,18.90
2009,07,19,09,58,19.00
2009,07,19,09,59,19.10
2009,07,19,10,00,19.20
2009,07,19,10,01,19.20
2009,07,19,10,02,19.30
2009,07,19,10,03,19.30
2009,07,19,10,04,19.20
2009,07,19,10,05,19.00
2009,07,19,10,06,18.90
2009,07,19,10,07,18.70
2009,07,19,10,08,18.60
2009,07,19,10,09,18.50
2009,07,19,10,10,18.50
2009,07,19,10,11,18.40
2009,07,19,10,12,18.30
2009,07,19,10,13,18.30
2009,07,19,10,14,18.30
2009,07,19,10,15,18.20
2009,07,19,10,16,18.20
2009,07,19,10,17,18.20
2009,07,19,10,18,18.30
2009,07,19,10,19,18.30
2009,07,19,10,20,18.40
2009,07,19,10,21,18.50
2009,07,19,10,22,18.50
2009,07,19,10,23,18.50
2009,07,19,10,24,18.50
2009,07,19,10,25,18.50
2009,07,19,10,26,18.50
2009,07,19,10,27,18.60
2009,07,19,10,28,18.70
2009,07,19,10,29,18.80
2009,07,19,10,30,18.80
2009,07,19,10,31,18.80
2009,07,19,10,32,18.80
2009,07,19,10,33,18.80
2009,07,19,10,34,18.90
2009,07,19,10,35,18.90
2009,07,19,10,36,18.80
2009,07,19,10,37,18.80
2009,07,19,10,38,18.80
2009,07,19,10,39,18.90
2009,07,19,10,40,18.90
2009,07,19,10,41,19.00
2009,07,19,10,42,19.00
2009,07,19,10,43,19.10
2009,07,19,10,44,19.10
2009,07,19,10,45,19.10
2009,07,19,10,46,19.10
2009,07,19,10,47,19.20
2009,07,19,10,48,19.20
2009,07,19,10,49,19.20
2009,07,19,10,50,19.30
2009,07,19,10,51,19.20
2009,07,19,10,52,19.20
2009,07,19,10,53,19.10
2009,07,19,10,54,19.00
2009,07,19,10,55,18.90
2009,07,19,10,56,18.90
2009,07,19,10,57,19.00
2009,07,19,10,58,19.10
2009,07,19,10,59,19.10
2009,07,19,11,00,19.00
2009,07,19,11,01,18.90
2009,07,19,11,02,18.80
2009,07,19,11,03,18.80
2009,07,19,11,04,18.80
2009,07,19,11,05,18.90
2009,07,19,11,06,19.00
2009,07,19,11,07,19.00
2009,07,19,11,08,19.00
2009,07,19,11,09,19.10
2009,07,19,11,10,19.20
2009,07,19,11,11,19.20
2009,07,19,11,12,19.20
2009,07,19,11,13,19.20
2009,07,19,11,14,19.10
2009,07,19,11,15,19.00
2009,07,19,11,16,19.10
2009,07,19,11,17,19.10
2009,07,19,11,18,19.10
2009,07,19,11,19,19.10
2009,07,19,11,20,19.10
2009,07,19,11,21,19.30
2009,07,19,11,22,19.30
2009,07,19,11,23,19.40
2009,07,19,11,24,19.50
2009,07,19,11,25,19.50
2009,07,19,11,26,19.50
2009,07,19,11,27,19.40
2009,07,19,11,28,19.30
2009,07,19,11,29,19.30
2009,07,19,11,30,19.30
2009,07,19,11,31,19.30
2009,07,19,11,32,19.30
2009,07,19,11,33,19.30
2009,07,19,11,34,19.40
2009,07,19,11,35,19.40
2009,07,19,11,36,19.40
2009,07,19,11,37,19.40
2009,07,19,11,38,19.30
2009,07,19,11,39,19.30
2009,07,19,11,40,19.30
2009,07,19,11,41,19.30
2009,07,19,11,42,19.30
2009,07,19,11,43,19.30
2009,07,19,11,44,19.30
2009,07,19,11,45,19.30
2009,07,19,11,46,19.30
2009,07,19,11,47,19.20
2009,07,19,11,48,19.20
2009,07,19,11,49,19.20
2009,07,19,11,50,19.20
2009,07,19,11,51,19.30
2009,07,19,11,52,19.40
2009,07,19,11,53,19.60
2009,07,19,11,54,19.80
2009,07,19,11,55,19.90
2009,07,19,11,56,19.90
2009,07,19,11,57,20.00
2009,07,19,11,58,20.10
2009,07,19,11,59,20.20
2009,07,19,12,00,20.30
2009,07,19,12,01,20.20
2009,07,19,12,02,20.20
2009,07,19,12,03,20.10
2009,07,19,12,04,20.20
2009,07,19,12,05,20.20
2009,07,19,12,06,20.20
2009,07,19,12,07,20.10
2009,07,19,12,08,20.10
2009,07,19,12,09,20.00
2009,07,19,12,10,20.00
2009,07,19,12,11,19.90
2009,07,19,12,12,19.80
2009,07,19,12,13,19.80
2009,07,19,12,14,19.80
2009,07,19,12,15,19.80
2009,07,19,12,16,19.80
2009,07,19,12,17,19.80
2009,07,19,12,18,19.90
2009,07,19,12,19,19.90
2009,07,19,12,20,19.80
2009,07,19,12,21,19.80
2009,07,19,12,22,19.70
2009,07,19,12,23,19.60
2009,07,19,12,24,19.50
2009,07,19,12,25,19.50
2009,07,19,12,26,19.50
2009,07,19,12,27,19.60
2009,07,19,12,28,19.60
2009,07,19,12,29,19.60
2009,07,19,12,30,19.70
2009,07,19,12,31,19.80
2009,07,19,12,32,19.90
2009,07,19,12,33,19.90
2009,07,19,12,34,19.90
2009,07,19,12,35,19.90
2009,07,19,12,36,19.80
2009,07,19,12,37,19.70
2009,07,19,12,38,19.60
2009,07,19,12,39,19.50
2009,07,19,12,40,19.40
2009,07,19,12,41,19.40
2009,07,19,12,42,19.50
2009,07,19,12,43,19.60
2009,07,19,12,44,19.70
2009,07,19,12,45,19.60
2009,07,19,12,46,19.70
2009,07,19,12,47,19.80
2009,07,19,12,48,19.80
2009,07,19,12,49,19.90
2009,07,19,12,50,19.90
2009,07,19,12,51,19.90
2009,07,19,12,52,19.90
2009,07,19,12,53,19.80
2009,07,19,12,54,19.80
2009,07,19,12,55,19.70
2009,07,19,12,56,19.80
2009,07,19,12,57,19.80
2009,07,19,12,58,19.80
2009,07,19,12,59,19.80
2009,07,19,13,00,19.80
2009,07,19,13,01,19.80
2009,07,19,13,02,19.70
2009,07,19,13,03,19.70
2009,07,19,13,04,19.80
2009,07,19,13,05,19.80
2009,07,19,13,06,19.80
2009,07,19,13,07,19.80
2009,07,19,13,08,19.80
2009,07,19,13,09,19.80
2009,07,19,13,10,19.80
2009,07,19,13,11,19.80
2009,07,19,13,12,19.90
2009,07,19,13,13,19.90
2009,07,19,13,14,20.00
2009,07,19,13,15,20.20
2009,07,19,13,16,20.30
2009,07,19,13,17,20.40
2009,07,19,13,18,20.60
2009,07,19,13,19,20.70
2009,07,19,13,20,20.70
2009,07,19,13,21,20.50
2009,07,19,13,22,20.40
2009,07,19,13,23,20.30
2009,07,19,13,24,20.30
2009,07,19,13,25,20.20
2009,07,19,13,26,20.00
2009,07,19,13,27,19.80
2009,07,19,13,28,19.80
2009,07,19,13,29,19.80
2009,07,19,13,30,19.90
2009,07,19,13,31,19.80
2009,07,19,13,32,19.90
2009,07,19,13,33,19.90
2009,07,19,13,34,19.70
2009,07,19,13,35,19.60
2009,07,19,13,36,19.50
2009,07,19,13,37,19.50
2009,07,19,13,38,19.60
2009,07,19,13,39,19.60
2009,07,19,13,40,19.60
2009,07,19,13,41,19.50
2009,07,19,13,42,19.50
2009,07,19,13,43,19.40
2009,07,19,13,44,19.40
2009,07,19,13,45,19.40
2009,07,19,13,46,19.40
2009,07,19,13,47,19.40
2009,07,19,13,48,19.40
2009,07,19,13,49,19.30
2009,07,19,13,50,19.40
2009,07,19,13,51,19.50
2009,07,19,13,52,19.70
2009,07,19,13,53,19.80
2009,07,19,13,54,19.80
2009,07,19,13,55,19.90
2009,07,19,13,56,19.90
2009,07,19,13,57,19.90
2009,07,19,13,58,19.90
2009,07,19,13,59,19.80
2009,07,19,14,00,19.70
2009,07,19,14,01,19.80
2009,07,19,14,02,19.80
2009,07,19,14,03,19.80
2009,07,19,14,04,19.90
2009,07,19,14,05,20.00
2009,07,19,14,06,20.20
2009,07,19,14,07,20.10
2009,07,19,14,08,20.10
2009,07,19,14,09,20.20
2009,07,19,14,10,20.30
2009,07,19,14,11,20.30
2009,07,19,14,12,20.30
2009,07,19,14,13,20.40
2009,07,19,14,14,20.50
2009,07,19,14,15,20.60
2009,07,19,14,16,20.60
2009,07,19,14,17,20.60
2009,07,19,14,18,20.60
2009,07,19,14,19,20.60
2009,07,19,14,20,20.60
2009,07,19,14,21,20.60
2009,07,19,14,22,20.80
2009,07,19,14,23,21.00
2009,07,19,14,24,21.10
2009,07,19,14,25,21.10
2009,07,19,14,26,20.90
2009,07,19,14,27,20.80
2009,07,19,14,28,20.80
2009,07,19,14,29,20.80
2009,07,19,14,30,20.80
2009,07,19,14,31,20.80
2009,07,19,14,32,20.70
2009,07,19,14,33,20.60
2009,07,19,14,34,20.50
2009,07,19,14,35,20.50
2009,07,19,14,36,20.30
2009,07,19,14,37,20.40
2009,07,19,14,38,20.30
2009,07,19,14,39,20.30
2009,07,19,14,40,20.30
2009,07,19,14,41,20.40
2009,07,19,14,42,20.50
2009,07,19,14,43,20.70
2009,07,19,14,44,20.80
2009,07,19,14,45,20.80
2009,07,19,14,46,20.80
2009,07,19,14,47,20.90
2009,07,19,14,48,20.80
2009,07,19,14,49,20.80
2009,07,19,14,50,20.80
2009,07,19,14,51,20.90
2009,07,19,14,52,20.90
2009,07,19,14,53,20.90
2009,07,19,14,54,21.10
2009,07,19,14,55,21.10
2009,07,19,14,56,21.00
2009,07,19,14,57,20.90
2009,07,19,14,58,20.90
2009,07,19,14,59,21.00
2009,07,19,15,00,21.10
2009,07,19,15,01,21.10
2009,07,19,15,02,21.20
2009,07,19,15,03,21.30
2009,07,19,15,04,21.30
2009,07,19,15,05,21.50
2009,07,19,15,06,21.50
2009,07,19,15,07,21.50
2009,07,19,15,08,21.40
2009,07,19,15,09,21.30
2009,07,19,15,10,21.20
2009,07,19,15,11,21.20
2009,07,19,15,12,21.30
2009,07,19,15,13,21.40
2009,07,19,15,14,21.60
2009,07,19,15,15,21.70
2009,07,19,15,16,21.80
2009,07,19,15,17,21.90
2009,07,19,15,18,22.00
2009,07,19,15,19,22.10
2009,07,19,15,20,22.10
2009,07,19,15,21,22.10
2009,07,19,15,22,22.10
2009,07,19,15,23,22.00
2009,07,19,15,24,22.10
2009,07,19,15,25,22.20
2009,07,19,15,26,22.30
2009,07,19,15,27,22.30
2009,07,19,15,28,22.40
2009,07,19,15,29,22.30
2009,07,19,15,30,22.40
2009,07,19,15,31,22.40
2009,07,19,15,32,22.40
2009,07,19,15,33,22.40
2009,07,19,15,34,22.40
2009,07,19,15,35,22.30
2009,07,19,15,36,22.40
2009,07,19,15,37,22.40
2009,07,19,15,38,22.50
2009,07,19,15,39,22.70
2009,07,19,15,40,22.70
2009,07,19,15,41,22.80
2009,07,19,15,42,22.80
2009,07,19,15,43,22.90
2009,07,19,15,44,22.90
2009,07,19,15,45,22.80
2009,07,19,15,46,22.80
2009,07,19,15,47,22.80
2009,07,19,15,48,22.90
2009,07,19,15,49,22.90
2009,07,19,15,50,22.90
2009,07,19,15,51,23.00
2009,07,19,15,52,23.00
2009,07,19,15,53,23.00
2009,07,19,15,54,23.10
2009,07,19,15,55,23.00
2009,07,19,15,56,23.00
2009,07,19,15,57,23.00
2009,07,19,15,58,23.10
2009,07,19,15,59,23.20
2009,07,19,16,00,23.20
2009,07,19,16,01,23.20
2009,07,19,16,02,23.30
2009,07,19,16,03,23.30
2009,07,19,16,04,23.30
2009,07,19,16,05,23.20
2009,07,19,16,06,23.20
2009,07,19,16,07,23.10
2009,07,19,16,08,23.10
2009,07,19,16,09,23.20
2009,07,19,16,10,23.20
2009,07,19,16,11,23.30
2009,07,19,16,12,23.40
2009,07,19,16,13,23.50
2009,07,19,16,14,23.60
2009,07,19,16,15,23.70
2009,07,19,16,16,23.80
2009,07,19,16,17,23.80
2009,07,19,16,18,23.80
2009,07,19,16,19,23.80
2009,07,19,16,20,23.80
2009,07,19,16,21,23.90
2009,07,19,16,22,23.90
2009,07,19,16,23,23.90
2009,07,19,16,24,24.00
2009,07,19,16,25,24.00
2009,07,19,16,26,23.90
2009,07,19,16,27,23.90
2009,07,19,16,28,23.90
2009,07,19,16,29,23.80
2009,07,19,16,30,23.80
2009,07,19,16,31,23.70
2009,07,19,16,32,23.60
2009,07,19,16,33,23.60
2009,07,19,16,34,23.50
2009,07,19,16,35,23.40
2009,07,19,16,36,23.30
2009,07,19,16,37,23.20
2009,07,19,16,38,23.20
2009,07,19,16,39,23.20
2009,07,19,16,40,23.10
2009,07,19,16,41,23.10
2009,07,19,16,42,23.10
2009,07,19,16,43,23.10
2009,07,19,16,44,23.10
2009,07,19,16,45,23.10
2009,07,19,16,46,23.10
2009,07,19,16,47,23.10
2009,07,19,16,48,23.10
2009,07,19,16,49,23.10
2009,07,19,16,50,23.10
2009,07,19,16,51,23.20
2009,07,19,16,52,23.30
2009,07,19,16,53,23.30
2009,07,19,16,54,23.30
2009,07,19,16,55,23.40
2009,07,19,16,56,23.40
2009,07,19,16,57,23.50
2009,07,19,16,58,23.60
2009,07,19,16,59,23.60
2009,07,19,17,00,23.60
2009,07,19,17,01,23.70
2009,07,19,17,02,23.70
2009,07,19,17,03,23.70
2009,07,19,17,04,23.70
2009,07,19,17,05,23.80
2009,07,19,17,06,23.80
2009,07,19,17,07,23.80
2009,07,19,17,08,23.80
2009,07,19,17,09,23.90
2009,07,19,17,10,23.90
2009,07,19,17,11,23.90
2009,07,19,17,12,23.90
2009,07,19,17,13,23.80
2009,07,19,17,14,23.70
2009,07,19,17,15,23.60
2009,07,19,17,16,23.60
2009,07,19,17,17,23.50
2009,07,19,17,18,23.50
2009,07,19,17,19,23.50
2009,07,19,17,20,23.40
2009,07,19,17,21,23.40
2009,07,19,17,22,23.40
2009,07,19,17,23,23.50